date,time,SUV Intensity [MED/Hr],UV Index,Daily total [MED],Since Last [MED]
24/07/2023,23:59:19,0.001,0.0,5.219,5.219
25/07/2023,00:00:19,0.000,0.0,0.0,-5.219
25/07/2023,00:01:20,-0.001,0.0,0.0,0.0
25/07/2023,00:02:19,0.000,0.0,0.0,0.0
25/07/2023,00:03:19,0.000,0.0,0.0,0.0
25/07/2023,00:04:20,0.000,0.0,0.0,0.0
25/07/2023,00:05:19,-0.000,0.0,0.0,0.0
25/07/2023,00:06:19,0.000,0.0,0.0,0.0
25/07/2023,00:07:20,0.000,0.0,0.0,0.0
25/07/2023,00:08:21,-0.001,0.0,0.0,0.0
25/07/2023,00:09:20,0.000,0.0,0.0,0.0
25/07/2023,00:10:20,0.000,0.0,0.0,0.0
25/07/2023,00:11:19,0.001,0.0,0.0,0.0
25/07/2023,00:12:19,-0.001,0.0,0.0,0.0
25/07/2023,00:13:19,-0.001,0.0,0.0,0.0
25/07/2023,00:14:19,0.000,0.0,0.0,0.0
25/07/2023,00:15:20,0.000,0.0,0.0,0.0
25/07/2023,00:16:20,0.000,0.0,0.0,0.0
25/07/2023,00:17:20,0.000,0.0,0.0,0.0
25/07/2023,00:18:19,0.000,0.0,0.0,0.0
25/07/2023,00:19:19,-0.000,0.0,0.0,0.0
25/07/2023,00:20:20,0.000,0.0,0.0,0.0
25/07/2023,00:21:20,0.000,0.0,0.0,0.0
25/07/2023,00:22:19,-0.000,0.0,0.0,0.0
25/07/2023,00:23:20,0.000,0.0,0.0,0.0
25/07/2023,00:24:19,-0.000,0.0,0.0,0.0
25/07/2023,00:25:19,0.000,0.0,0.0,0.0
25/07/2023,00:26:20,0.000,0.0,0.0,0.0
25/07/2023,00:27:21,-0.001,0.0,0.0,0.0
25/07/2023,00:28:19,-0.001,0.0,0.0,0.0
25/07/2023,00:29:19,0.000,0.0,0.0,0.0
25/07/2023,00:30:20,0.001,0.0,0.0,0.0
25/07/2023,00:31:20,-0.001,0.0,0.0,0.0
25/07/2023,00:32:19,0.000,0.0,0.0,0.0
25/07/2023,00:33:20,-0.001,0.0,0.0,0.0
25/07/2023,00:34:19,0.001,0.0,0.0,0.0
25/07/2023,00:35:20,0.001,0.0,0.0,0.0
25/07/2023,00:36:19,-0.000,0.0,0.0,0.0
25/07/2023,00:37:20,0.000,0.0,0.0,0.0
25/07/2023,00:38:19,0.000,0.0,0.0,0.0
25/07/2023,00:39:18,0.000,0.0,0.0,0.0
25/07/2023,00:40:19,0.001,0.0,0.0,0.0
25/07/2023,00:41:20,0.000,0.0,0.0,0.0
25/07/2023,00:42:19,-0.001,0.0,0.0,0.0
25/07/2023,00:43:20,0.000,0.0,0.0,0.0
25/07/2023,00:44:20,0.000,0.0,0.0,0.0
25/07/2023,00:45:20,-0.000,0.0,0.0,0.0
25/07/2023,00:46:20,0.000,0.0,0.0,0.0
25/07/2023,00:47:19,0.000,0.0,0.0,0.0
25/07/2023,00:48:20,0.001,0.0,0.0,0.0
25/07/2023,00:49:20,-0.001,0.0,0.0,0.0
25/07/2023,00:50:20,-0.000,0.0,0.0,0.0
25/07/2023,00:51:19,-0.001,0.0,0.0,0.0
25/07/2023,00:52:19,-0.000,0.0,0.0,0.0
25/07/2023,00:53:20,-0.001,0.0,0.0,0.0
25/07/2023,00:54:19,-0.001,0.0,0.0,0.0
25/07/2023,00:55:19,-0.000,0.0,0.0,0.0
25/07/2023,00:56:20,-0.001,0.0,0.0,0.0
25/07/2023,00:57:19,-0.001,0.0,0.0,0.0
25/07/2023,00:58:19,-0.000,0.0,0.0,0.0
25/07/2023,00:59:20,0.000,0.0,0.0,0.0
25/07/2023,01:00:20,0.000,0.0,0.0,0.0
25/07/2023,01:01:20,-0.000,0.0,0.0,0.0
25/07/2023,01:02:19,-0.000,0.0,0.0,0.0
25/07/2023,01:03:20,0.001,0.0,0.0,0.0
25/07/2023,01:04:19,-0.000,0.0,0.0,0.0
25/07/2023,01:05:19,-0.000,0.0,0.0,0.0
25/07/2023,01:06:19,-0.000,0.0,0.0,0.0
25/07/2023,01:07:20,-0.000,0.0,0.0,0.0
25/07/2023,01:08:19,-0.001,0.0,0.0,0.0
25/07/2023,01:09:20,0.001,0.0,0.0,0.0
25/07/2023,01:10:20,-0.000,0.0,0.0,0.0
25/07/2023,01:11:20,-0.000,0.0,0.0,0.0
25/07/2023,01:12:20,0.001,0.0,0.0,0.0
25/07/2023,01:13:20,-0.001,0.0,0.0,0.0
25/07/2023,01:14:19,-0.000,0.0,0.0,0.0
25/07/2023,01:15:20,-0.000,0.0,0.0,0.0
25/07/2023,01:16:20,-0.001,0.0,0.0,0.0
25/07/2023,01:17:19,0.000,0.0,0.0,0.0
25/07/2023,01:18:20,0.000,0.0,0.0,0.0
25/07/2023,01:19:19,-0.001,0.0,0.0,0.0
25/07/2023,01:20:20,-0.001,0.0,0.0,0.0
25/07/2023,01:21:19,-0.000,0.0,0.0,0.0
25/07/2023,01:22:20,-0.001,0.0,0.0,0.0
25/07/2023,01:23:20,-0.001,0.0,0.0,0.0
25/07/2023,01:24:20,-0.001,0.0,0.0,0.0
25/07/2023,01:25:20,0.000,0.0,0.0,0.0
25/07/2023,01:26:19,0.000,0.0,0.0,0.0
25/07/2023,01:27:20,0.000,0.0,0.0,0.0
25/07/2023,01:28:19,-0.000,0.0,0.0,0.0
25/07/2023,01:29:19,0.000,0.0,0.0,0.0
25/07/2023,01:30:20,-0.000,0.0,0.0,0.0
25/07/2023,01:31:19,-0.000,0.0,0.0,0.0
25/07/2023,01:32:20,-0.000,0.0,0.0,0.0
25/07/2023,01:33:19,0.001,0.0,0.0,0.0
25/07/2023,01:34:20,-0.000,0.0,0.0,0.0
25/07/2023,01:35:19,0.000,0.0,0.0,0.0
25/07/2023,01:36:20,0.000,0.0,0.0,0.0
25/07/2023,01:37:20,0.001,0.0,0.0,0.0
25/07/2023,01:38:20,0.001,0.0,0.0,0.0
25/07/2023,01:39:20,0.000,0.0,0.0,0.0
25/07/2023,01:40:19,0.000,0.0,0.0,0.0
25/07/2023,01:41:20,-0.000,0.0,0.0,0.0
25/07/2023,01:42:19,0.000,0.0,0.0,0.0
25/07/2023,01:43:20,0.000,0.0,0.0,0.0
25/07/2023,01:44:20,0.000,0.0,0.0,0.0
25/07/2023,01:45:19,-0.000,0.0,0.0,0.0
25/07/2023,01:46:20,-0.001,0.0,0.0,0.0
25/07/2023,01:47:19,-0.000,0.0,0.0,0.0
25/07/2023,01:48:20,0.000,0.0,0.0,0.0
25/07/2023,01:49:20,0.001,0.0,0.0,0.0
25/07/2023,01:50:19,0.000,0.0,0.0,0.0
25/07/2023,01:51:20,-0.001,0.0,0.0,0.0
25/07/2023,01:52:20,-0.000,0.0,0.0,0.0
25/07/2023,01:53:20,0.000,0.0,0.0,0.0
25/07/2023,01:54:19,0.000,0.0,0.0,0.0
25/07/2023,01:55:20,0.000,0.0,0.0,0.0
25/07/2023,01:56:20,0.000,0.0,0.0,0.0
25/07/2023,01:57:19,0.000,0.0,0.0,0.0
25/07/2023,01:58:19,-0.000,0.0,0.0,0.0
25/07/2023,01:59:20,-0.000,0.0,0.0,0.0
25/07/2023,02:00:20,0.000,0.0,0.0,0.0
25/07/2023,02:01:20,0.000,0.0,0.0,0.0
25/07/2023,02:02:19,0.000,0.0,0.0,0.0
25/07/2023,02:03:20,0.000,0.0,0.0,0.0
25/07/2023,02:04:20,0.000,0.0,0.0,0.0
25/07/2023,02:05:20,0.000,0.0,0.0,0.0
25/07/2023,02:06:19,0.000,0.0,0.0,0.0
25/07/2023,02:07:20,0.000,0.0,0.0,0.0
25/07/2023,02:08:20,-0.000,0.0,0.0,0.0
25/07/2023,02:09:19,0.000,0.0,0.0,0.0
25/07/2023,02:10:20,0.000,0.0,0.0,0.0
25/07/2023,02:11:19,0.000,0.0,0.0,0.0
25/07/2023,02:12:20,-0.000,0.0,0.0,0.0
25/07/2023,02:13:20,-0.000,0.0,0.0,0.0
25/07/2023,02:14:19,0.001,0.0,0.0,0.0
25/07/2023,02:15:20,0.000,0.0,0.0,0.0
25/07/2023,02:16:20,0.001,0.0,0.0,0.0
25/07/2023,02:17:20,0.001,0.0,0.0,0.0
25/07/2023,02:18:20,0.001,0.0,0.0,0.0
25/07/2023,02:19:19,-0.001,0.0,0.0,0.0
25/07/2023,02:20:20,0.000,0.0,0.0,0.0
25/07/2023,02:21:19,-0.000,0.0,0.0,0.0
25/07/2023,02:22:20,0.000,0.0,0.0,0.0
25/07/2023,02:23:19,0.001,0.0,0.0,0.0
25/07/2023,02:24:19,0.000,0.0,0.0,0.0
25/07/2023,02:25:20,0.001,0.0,0.0,0.0
25/07/2023,02:26:19,0.001,0.0,0.0,0.0
25/07/2023,02:27:20,0.001,0.0,0.0,0.0
25/07/2023,02:28:20,0.000,0.0,0.0,0.0
25/07/2023,02:29:20,0.002,0.0,0.0,0.0
25/07/2023,02:30:20,-0.000,0.0,0.0,0.0
25/07/2023,02:31:19,0.001,0.0,0.0,0.0
25/07/2023,02:32:20,0.001,0.0,0.0,0.0
25/07/2023,02:33:20,-0.001,0.0,0.0,0.0
25/07/2023,02:34:20,-0.000,0.0,0.0,0.0
25/07/2023,02:35:20,0.000,0.0,0.0,0.0
25/07/2023,02:36:20,0.000,0.0,0.0,0.0
25/07/2023,02:37:19,0.002,0.0,0.0,0.0
25/07/2023,02:38:20,0.001,0.0,0.0,0.0
25/07/2023,02:39:19,0.001,0.0,0.0,0.0
25/07/2023,02:40:20,0.001,0.0,0.0,0.0
25/07/2023,02:41:19,-0.000,0.0,0.0,0.0
25/07/2023,02:42:19,0.000,0.0,0.0,0.0
25/07/2023,02:43:20,0.001,0.0,0.0,0.0
25/07/2023,02:44:20,0.000,0.0,0.0,0.0
25/07/2023,02:45:20,0.001,0.0,0.0,0.0
25/07/2023,02:46:20,0.001,0.0,0.0,0.0
25/07/2023,02:47:20,-0.000,0.0,0.0,0.0
25/07/2023,02:48:20,0.001,0.0,0.0,0.0
25/07/2023,02:49:19,0.000,0.0,0.0,0.0
25/07/2023,02:50:20,0.001,0.0,0.0,0.0
25/07/2023,02:51:20,0.001,0.0,0.0,0.0
25/07/2023,02:52:19,0.000,0.0,0.0,0.0
25/07/2023,02:53:20,0.001,0.0,0.0,0.0
25/07/2023,02:54:19,0.001,0.0,0.0,0.0
25/07/2023,02:55:20,0.001,0.0,0.0,0.0
25/07/2023,02:56:20,0.001,0.0,0.0,0.0
25/07/2023,02:57:19,0.002,0.0,0.0,0.0
25/07/2023,02:58:20,-0.000,0.0,0.0,0.0
25/07/2023,02:59:20,0.000,0.0,0.0,0.0
25/07/2023,03:00:20,0.001,0.0,0.0,0.0
25/07/2023,03:01:20,0.000,0.0,0.0,0.0
25/07/2023,03:02:19,0.000,0.0,0.0,0.0
25/07/2023,03:03:20,0.001,0.0,0.0,0.0
25/07/2023,03:04:20,0.001,0.0,0.0,0.0
25/07/2023,03:05:20,0.001,0.0,0.0,0.0
25/07/2023,03:06:20,0.001,0.0,0.0,0.0
25/07/2023,03:07:20,0.000,0.0,0.0,0.0
25/07/2023,03:08:19,0.000,0.0,0.0,0.0
25/07/2023,03:09:20,0.001,0.0,0.0,0.0
25/07/2023,03:10:19,0.001,0.0,0.0,0.0
25/07/2023,03:11:20,0.001,0.0,0.0,0.0
25/07/2023,03:12:20,0.001,0.0,0.0,0.0
25/07/2023,03:13:19,0.001,0.0,0.0,0.0
25/07/2023,03:14:20,0.002,0.0,0.0,0.0
25/07/2023,03:15:20,0.001,0.0,0.0,0.0
25/07/2023,03:16:20,0.001,0.0,0.0,0.0
25/07/2023,03:17:20,0.002,0.0,0.0,0.0
25/07/2023,03:18:19,0.000,0.0,0.0,0.0
25/07/2023,03:19:20,0.001,0.0,0.0,0.0
25/07/2023,03:20:19,0.001,0.0,0.0,0.0
25/07/2023,03:21:20,0.000,0.0,0.0,0.0
25/07/2023,03:22:20,0.001,0.0,0.0,0.0
25/07/2023,03:23:19,0.001,0.0,0.0,0.0
25/07/2023,03:24:20,-0.000,0.0,0.0,0.0
25/07/2023,03:25:19,0.001,0.0,0.0,0.0
25/07/2023,03:26:20,0.002,0.0,0.0,0.0
25/07/2023,03:27:20,0.001,0.0,0.0,0.0
25/07/2023,03:28:20,0.000,0.0,0.0,0.0
25/07/2023,03:29:20,0.000,0.0,0.0,0.0
25/07/2023,03:30:19,-0.000,0.0,0.0,0.0
25/07/2023,03:31:20,0.000,0.0,0.0,0.0
25/07/2023,03:32:20,-0.000,0.0,0.0,0.0
25/07/2023,03:33:19,-0.000,0.0,0.0,0.0
25/07/2023,03:34:20,0.000,0.0,0.0,0.0
25/07/2023,03:35:20,0.001,0.0,0.0,0.0
25/07/2023,03:36:20,0.001,0.0,0.0,0.0
25/07/2023,03:37:20,-0.000,0.0,0.0,0.0
25/07/2023,03:38:19,0.001,0.0,0.0,0.0
25/07/2023,03:39:20,0.000,0.0,0.0,0.0
25/07/2023,03:40:20,0.001,0.0,0.0,0.0
25/07/2023,03:41:20,0.001,0.0,0.0,0.0
25/07/2023,03:42:20,0.001,0.0,0.0,0.0
25/07/2023,03:43:19,0.001,0.0,0.0,0.0
25/07/2023,03:44:20,0.001,0.0,0.0,0.0
25/07/2023,03:45:20,0.001,0.0,0.0,0.0
25/07/2023,03:46:20,0.001,0.0,0.0,0.0
25/07/2023,03:47:20,0.001,0.0,0.0,0.0
25/07/2023,03:48:19,0.000,0.0,0.0,0.0
25/07/2023,03:49:19,0.001,0.0,0.0,0.0
25/07/2023,03:50:20,0.001,0.0,0.0,0.0
25/07/2023,03:51:20,0.001,0.0,0.0,0.0
25/07/2023,03:52:20,0.002,0.0,0.0,0.0
25/07/2023,03:53:20,0.000,0.0,0.0,0.0
25/07/2023,03:54:19,0.002,0.0,0.0,0.0
25/07/2023,03:55:20,0.002,0.0,0.0,0.0
25/07/2023,03:56:19,0.001,0.0,0.0,0.0
25/07/2023,03:57:20,0.002,0.0,0.0,0.0
25/07/2023,03:58:19,0.001,0.0,0.0,0.0
25/07/2023,03:59:20,0.001,0.0,0.0,0.0
25/07/2023,04:00:20,0.001,0.0,0.0,0.0
25/07/2023,04:01:20,0.001,0.0,0.0,0.0
25/07/2023,04:02:20,0.001,0.0,0.0,0.0
25/07/2023,04:03:20,0.001,0.0,0.0,0.0
25/07/2023,04:04:20,0.002,0.0,0.0,0.0
25/07/2023,04:05:20,0.002,0.0,0.0,0.0
25/07/2023,04:06:20,0.001,0.0,0.0,0.0
25/07/2023,04:07:20,0.002,0.0,0.0,0.0
25/07/2023,04:08:20,0.001,0.0,0.0,0.0
25/07/2023,04:09:20,0.003,0.0,0.0,0.0
25/07/2023,04:10:20,0.002,0.0,0.0,0.0
25/07/2023,04:11:20,0.001,0.0,0.0,0.0
25/07/2023,04:12:20,0.003,0.0,0.0,0.0
25/07/2023,04:13:20,0.003,0.0,0.0,0.0
25/07/2023,04:14:20,0.002,0.0,0.0,0.0
25/07/2023,04:15:20,0.003,0.0,0.0,0.0
25/07/2023,04:16:20,0.003,0.0,0.0,0.0
25/07/2023,04:17:20,0.003,0.0,0.0,0.0
25/07/2023,04:18:20,0.003,0.0,0.0,0.0
25/07/2023,04:19:20,0.003,0.0,0.0,0.0
25/07/2023,04:20:20,0.004,0.0,0.0,0.0
25/07/2023,04:21:20,0.003,0.0,0.0,0.0
25/07/2023,04:22:20,0.003,0.0,0.0,0.0
25/07/2023,04:23:19,0.003,0.0,0.0,0.0
25/07/2023,04:24:20,0.003,0.0,0.0,0.0
25/07/2023,04:25:20,0.004,0.0,0.0,0.0
25/07/2023,04:26:20,0.004,0.0,0.0,0.0
25/07/2023,04:27:20,0.005,0.0,0.0,0.0
25/07/2023,04:28:19,0.005,0.0,0.0,0.0
25/07/2023,04:29:20,0.005,0.0,0.0,0.0
25/07/2023,04:30:20,0.005,0.0,0.0,0.0
25/07/2023,04:31:20,0.005,0.0,0.0,0.0
25/07/2023,04:32:20,0.005,0.0,0.0,0.0
25/07/2023,04:33:20,0.007,0.0,0.0,0.0
25/07/2023,04:34:20,0.006,0.0,0.0,0.0
25/07/2023,04:35:20,0.007,0.0,0.0,0.0
25/07/2023,04:36:20,0.007,0.0,0.0,0.0
25/07/2023,04:37:18,0.007,0.0,0.0,0.0
25/07/2023,04:38:20,0.008,0.0,0.001,0.001
25/07/2023,04:39:20,0.008,0.0,0.001,0.0
25/07/2023,04:40:20,0.008,0.0,0.001,0.0
25/07/2023,04:41:20,0.009,0.0,0.001,0.0
25/07/2023,04:42:20,0.009,0.0,0.001,0.0
25/07/2023,04:43:20,0.009,0.0,0.001,0.0
25/07/2023,04:44:24,0.010,0.0,0.001,0.0
25/07/2023,04:45:21,0.010,0.0,0.002,0.001
25/07/2023,04:46:20,0.011,0.0,0.002,0.0
25/07/2023,04:47:20,0.011,0.0,0.002,0.0
25/07/2023,04:48:20,0.011,0.0,0.002,0.0
25/07/2023,04:49:20,0.011,0.0,0.002,0.0
25/07/2023,04:50:20,0.012,0.0,0.003,0.001
25/07/2023,04:51:20,0.012,0.0,0.003,0.0
25/07/2023,04:52:20,0.014,0.0,0.003,0.0
25/07/2023,04:53:20,0.013,0.0,0.003,0.0
25/07/2023,04:54:20,0.013,0.0,0.003,0.0
25/07/2023,04:55:20,0.014,0.0,0.004,0.001
25/07/2023,04:56:20,0.015,0.0,0.004,0.0
25/07/2023,04:57:20,0.015,0.0,0.004,0.0
25/07/2023,04:58:20,0.016,0.0,0.004,0.0
25/07/2023,04:59:20,0.017,0.0,0.005,0.001
25/07/2023,05:00:20,0.017,0.0,0.005,0.0
25/07/2023,05:01:20,0.017,0.0,0.005,0.0
25/07/2023,05:02:20,0.017,0.0,0.005,0.0
25/07/2023,05:03:20,0.017,0.0,0.006,0.001
25/07/2023,05:04:21,0.019,0.0,0.006,0.0
25/07/2023,05:05:20,0.019,0.0,0.006,0.0
25/07/2023,05:06:20,0.020,0.0,0.007,0.001
25/07/2023,05:07:20,0.021,0.0,0.007,0.0
25/07/2023,05:08:20,0.021,0.0,0.007,0.0
25/07/2023,05:09:20,0.021,0.0,0.008,0.001
25/07/2023,05:10:20,0.023,0.0,0.008,0.0
25/07/2023,05:11:20,0.024,0.0,0.009,0.001
25/07/2023,05:12:20,0.024,0.0,0.009,0.0
25/07/2023,05:13:20,0.024,0.0,0.009,0.0
25/07/2023,05:14:20,0.025,0.0,0.01,0.001
25/07/2023,05:15:20,0.026,0.0,0.01,0.0
25/07/2023,05:16:20,0.027,0.0,0.011,0.001
25/07/2023,05:17:20,0.027,0.0,0.011,0.0
25/07/2023,05:18:20,0.028,0.0,0.012,0.001
25/07/2023,05:19:20,0.028,0.0,0.012,0.0
25/07/2023,05:20:20,0.030,0.0,0.012,0.0
25/07/2023,05:21:20,0.030,0.0,0.013,0.001
25/07/2023,05:22:20,0.031,0.0,0.013,0.0
25/07/2023,05:23:20,0.032,0.0,0.014,0.001
25/07/2023,05:24:20,0.033,0.0,0.015,0.001
25/07/2023,05:25:20,0.034,0.0,0.015,0.0
25/07/2023,05:26:20,0.034,0.0,0.016,0.001
25/07/2023,05:27:21,0.037,0.0,0.016,0.0
25/07/2023,05:28:20,0.038,0.0,0.017,0.001
25/07/2023,05:29:20,0.037,0.0,0.018,0.001
25/07/2023,05:30:20,0.039,0.0,0.018,0.0
25/07/2023,05:31:20,0.041,0.0,0.019,0.001
25/07/2023,05:32:20,0.042,0.0,0.02,0.001
25/07/2023,05:33:20,0.042,0.0,0.02,0.0
25/07/2023,05:34:20,0.044,0.0,0.021,0.001
25/07/2023,05:35:21,0.045,0.0,0.022,0.001
25/07/2023,05:36:19,0.046,0.0,0.022,0.0
25/07/2023,05:37:20,0.047,0.0,0.023,0.001
25/07/2023,05:38:20,0.049,0.0,0.024,0.001
25/07/2023,05:39:19,0.050,0.0,0.025,0.001
25/07/2023,05:40:42,0.052,0.0,0.026,0.001
25/07/2023,05:42:20,0.053,0.0,0.027,0.001
25/07/2023,05:43:20,0.054,0.0,0.028,0.001
25/07/2023,05:44:21,0.054,0.0,0.029,0.001
25/07/2023,05:45:20,0.056,0.0,0.03,0.001
25/07/2023,05:46:20,0.058,0.0,0.031,0.001
25/07/2023,05:47:20,0.059,0.0,0.032,0.001
25/07/2023,05:48:20,0.059,0.0,0.033,0.001
25/07/2023,05:49:20,0.062,0.0,0.034,0.001
25/07/2023,05:50:20,0.063,0.0,0.035,0.001
25/07/2023,05:51:20,0.064,0.0,0.036,0.001
25/07/2023,05:52:20,0.065,0.0,0.037,0.001
25/07/2023,05:53:20,0.067,0.0,0.038,0.001
25/07/2023,05:54:20,0.070,0.0,0.04,0.002
25/07/2023,05:55:20,0.070,0.0,0.041,0.001
25/07/2023,05:56:20,0.071,0.0,0.042,0.001
25/07/2023,05:57:20,0.073,0.0,0.043,0.001
25/07/2023,05:58:20,0.075,0.0,0.044,0.001
25/07/2023,05:59:20,0.077,0.0,0.046,0.002
25/07/2023,06:00:20,0.079,0.0,0.047,0.001
25/07/2023,06:01:20,0.079,0.0,0.048,0.001
25/07/2023,06:02:20,0.082,0.0,0.05,0.002
25/07/2023,06:03:20,0.085,0.0,0.051,0.001
25/07/2023,06:04:20,0.088,0.0,0.052,0.001
25/07/2023,06:05:20,0.090,0.0,0.054,0.002
25/07/2023,06:06:20,0.092,0.0,0.055,0.001
25/07/2023,06:07:20,0.095,0.0,0.057,0.002
25/07/2023,06:08:21,0.096,0.0,0.058,0.001
25/07/2023,06:09:20,0.099,0.0,0.06,0.002
25/07/2023,06:10:20,0.100,0.0,0.062,0.002
25/07/2023,06:11:21,0.102,0.0,0.063,0.001
25/07/2023,06:12:20,0.105,0.0,0.065,0.002
25/07/2023,06:13:20,0.106,0.0,0.067,0.002
25/07/2023,06:14:20,0.108,0.0,0.069,0.002
25/07/2023,06:15:20,0.111,0.0,0.071,0.002
25/07/2023,06:16:20,0.114,0.0,0.072,0.001
25/07/2023,06:17:20,0.115,0.0,0.074,0.002
25/07/2023,06:18:21,0.118,0.0,0.076,0.002
25/07/2023,06:19:20,0.121,0.0,0.078,0.002
25/07/2023,06:20:20,0.124,0.0,0.08,0.002
25/07/2023,06:21:21,0.125,0.0,0.082,0.002
25/07/2023,06:22:20,0.126,0.0,0.084,0.002
25/07/2023,06:23:20,0.130,0.0,0.087,0.003
25/07/2023,06:24:20,0.131,0.0,0.089,0.002
25/07/2023,06:25:20,0.132,0.0,0.091,0.002
25/07/2023,06:26:20,0.134,0.0,0.093,0.002
25/07/2023,06:27:20,0.139,0.0,0.096,0.003
25/07/2023,06:28:20,0.143,0.0,0.098,0.002
25/07/2023,06:29:20,0.137,0.0,0.1,0.002
25/07/2023,06:30:20,0.148,0.0,0.103,0.003
25/07/2023,06:31:20,0.153,0.0,0.105,0.002
25/07/2023,06:32:20,0.145,0.0,0.108,0.003
25/07/2023,06:33:20,0.155,0.0,0.11,0.002
25/07/2023,06:34:20,0.151,0.0,0.113,0.003
25/07/2023,06:35:20,0.152,0.0,0.115,0.002
25/07/2023,06:36:20,0.161,0.0,0.118,0.003
25/07/2023,06:37:20,0.165,0.0,0.12,0.002
25/07/2023,06:38:20,0.157,0.0,0.123,0.003
25/07/2023,06:39:20,0.156,0.0,0.126,0.003
25/07/2023,06:40:20,0.160,0.0,0.128,0.002
25/07/2023,06:41:20,0.174,0.0,0.131,0.003
25/07/2023,06:42:20,0.175,0.0,0.134,0.003
25/07/2023,06:43:21,0.166,0.0,0.137,0.003
25/07/2023,06:44:20,0.175,0.0,0.14,0.003
25/07/2023,06:45:20,0.190,0.0,0.143,0.003
25/07/2023,06:46:20,0.192,0.0,0.146,0.003
25/07/2023,06:47:20,0.196,0.0,0.149,0.003
25/07/2023,06:48:21,0.194,0.0,0.152,0.003
25/07/2023,06:49:20,0.186,0.0,0.155,0.003
25/07/2023,06:50:20,0.178,0.0,0.158,0.003
25/07/2023,06:51:20,0.174,0.0,0.161,0.003
25/07/2023,06:52:20,0.180,0.0,0.164,0.003
25/07/2023,06:53:20,0.174,0.0,0.167,0.003
25/07/2023,06:54:20,0.176,0.0,0.17,0.003
25/07/2023,06:55:20,0.175,0.0,0.173,0.003
25/07/2023,06:56:20,0.179,0.0,0.176,0.003
25/07/2023,06:57:20,0.189,0.0,0.179,0.003
25/07/2023,06:58:20,0.170,0.0,0.182,0.003
25/07/2023,06:59:20,0.169,0.0,0.185,0.003
25/07/2023,07:00:20,0.168,0.0,0.188,0.003
25/07/2023,07:01:21,0.171,0.0,0.19,0.002
25/07/2023,07:02:20,0.174,0.0,0.193,0.003
25/07/2023,07:03:20,0.177,0.0,0.196,0.003
25/07/2023,07:04:20,0.179,0.0,0.199,0.003
25/07/2023,07:05:21,0.185,0.0,0.202,0.003
25/07/2023,07:06:20,0.190,0.0,0.205,0.003
25/07/2023,07:07:20,0.197,0.0,0.209,0.004
25/07/2023,07:08:20,0.202,0.0,0.212,0.003
25/07/2023,07:09:20,0.205,0.0,0.215,0.003
25/07/2023,07:10:20,0.208,0.0,0.219,0.004
25/07/2023,07:11:20,0.208,0.0,0.222,0.003
25/07/2023,07:12:20,0.210,0.0,0.226,0.004
25/07/2023,07:13:20,0.215,0.0,0.229,0.003
25/07/2023,07:14:20,0.212,0.0,0.233,0.004
25/07/2023,07:15:20,0.216,0.0,0.236,0.003
25/07/2023,07:16:21,0.221,1.0,0.24,0.004
25/07/2023,07:17:20,0.226,1.0,0.244,0.004
25/07/2023,07:18:21,0.221,1.0,0.248,0.004
25/07/2023,07:19:20,0.219,1.0,0.251,0.003
25/07/2023,07:20:20,0.218,1.0,0.255,0.004
25/07/2023,07:21:21,0.219,1.0,0.259,0.004
25/07/2023,07:22:20,0.222,1.0,0.262,0.003
25/07/2023,07:23:20,0.226,1.0,0.266,0.004
25/07/2023,07:24:20,0.231,1.0,0.27,0.004
25/07/2023,07:25:21,0.237,1.0,0.274,0.004
25/07/2023,07:26:20,0.242,1.0,0.278,0.004
25/07/2023,07:27:20,0.248,1.0,0.282,0.004
25/07/2023,07:28:20,0.255,1.0,0.286,0.004
25/07/2023,07:29:20,0.262,1.0,0.29,0.004
25/07/2023,07:30:21,0.270,1.0,0.295,0.005
25/07/2023,07:31:20,0.276,1.0,0.299,0.004
25/07/2023,07:32:20,0.282,1.0,0.304,0.005
25/07/2023,07:33:21,0.289,1.0,0.309,0.005
25/07/2023,07:34:20,0.296,1.0,0.314,0.005
25/07/2023,07:35:20,0.301,1.0,0.319,0.005
25/07/2023,07:36:20,0.306,1.0,0.324,0.005
25/07/2023,07:37:21,0.309,1.0,0.329,0.005
25/07/2023,07:38:20,0.313,1.0,0.334,0.005
25/07/2023,07:39:20,0.311,1.0,0.339,0.005
25/07/2023,07:40:21,0.313,1.0,0.344,0.005
25/07/2023,07:41:20,0.312,1.0,0.35,0.006
25/07/2023,07:42:20,0.299,1.0,0.355,0.005
25/07/2023,07:43:20,0.296,1.0,0.36,0.005
25/07/2023,07:44:20,0.296,1.0,0.365,0.005
25/07/2023,07:45:20,0.298,1.0,0.37,0.005
25/07/2023,07:46:20,0.300,1.0,0.375,0.005
25/07/2023,07:47:21,0.305,1.0,0.38,0.005
25/07/2023,07:48:20,0.314,1.0,0.385,0.005
25/07/2023,07:49:20,0.324,1.0,0.39,0.005
25/07/2023,07:50:21,0.337,1.0,0.396,0.006
25/07/2023,07:51:21,0.353,1.0,0.401,0.005
25/07/2023,07:52:20,0.370,1.0,0.407,0.006
25/07/2023,07:53:21,0.395,1.0,0.414,0.007
25/07/2023,07:54:20,0.482,1.0,0.421,0.007
25/07/2023,07:55:21,0.540,1.0,0.43,0.009
25/07/2023,07:56:24,0.552,1.0,0.439,0.009
25/07/2023,07:57:22,0.570,1.0,0.448,0.009
25/07/2023,07:58:20,0.510,1.0,0.457,0.009
25/07/2023,07:59:21,0.558,1.0,0.466,0.009
25/07/2023,08:00:20,0.561,1.0,0.474,0.008
25/07/2023,08:01:20,0.526,1.0,0.483,0.009
25/07/2023,08:02:20,0.513,1.0,0.492,0.009
25/07/2023,08:03:21,0.448,1.0,0.5,0.008
25/07/2023,08:04:20,0.465,1.0,0.508,0.008
25/07/2023,08:05:20,0.470,1.0,0.516,0.008
25/07/2023,08:06:20,0.481,1.0,0.524,0.008
25/07/2023,08:07:21,0.489,1.0,0.532,0.008
25/07/2023,08:08:20,0.543,1.0,0.54,0.008
25/07/2023,08:09:21,0.644,1.0,0.55,0.01
25/07/2023,08:10:20,0.609,1.0,0.561,0.011
25/07/2023,08:11:21,0.560,1.0,0.571,0.01
25/07/2023,08:12:20,0.593,1.0,0.581,0.01
25/07/2023,08:13:20,0.650,1.0,0.591,0.01
25/07/2023,08:14:21,0.698,2.0,0.602,0.011
25/07/2023,08:15:20,0.563,1.0,0.612,0.01
25/07/2023,08:16:21,0.526,1.0,0.621,0.009
25/07/2023,08:17:20,0.535,1.0,0.63,0.009
25/07/2023,08:18:21,0.557,1.0,0.639,0.009
25/07/2023,08:19:21,0.609,1.0,0.649,0.01
25/07/2023,08:20:20,0.658,2.0,0.659,0.01
25/07/2023,08:21:20,0.562,1.0,0.67,0.011
25/07/2023,08:22:20,0.525,1.0,0.679,0.009
25/07/2023,08:23:20,0.517,1.0,0.688,0.009
25/07/2023,08:24:20,0.511,1.0,0.696,0.008
25/07/2023,08:25:20,0.511,1.0,0.705,0.009
25/07/2023,08:26:21,0.517,1.0,0.713,0.008
25/07/2023,08:27:20,0.521,1.0,0.722,0.009
25/07/2023,08:28:20,0.528,1.0,0.731,0.009
25/07/2023,08:29:21,0.537,1.0,0.739,0.008
25/07/2023,08:30:21,0.550,1.0,0.749,0.01
25/07/2023,08:31:20,0.615,1.0,0.758,0.009
25/07/2023,08:32:20,0.691,2.0,0.77,0.012
25/07/2023,08:33:21,0.620,1.0,0.78,0.01
25/07/2023,08:34:20,0.603,1.0,0.79,0.01
25/07/2023,08:35:21,0.664,2.0,0.801,0.011
25/07/2023,08:36:20,0.632,1.0,0.811,0.01
25/07/2023,08:37:20,0.782,2.0,0.823,0.012
25/07/2023,08:38:20,0.735,2.0,0.837,0.014
25/07/2023,08:39:20,0.701,2.0,0.85,0.013
25/07/2023,08:40:20,0.710,2.0,0.861,0.011
25/07/2023,08:41:21,0.718,2.0,0.873,0.012
25/07/2023,08:42:20,0.679,2.0,0.885,0.012
25/07/2023,08:43:20,0.746,2.0,0.898,0.013
25/07/2023,08:44:21,0.777,2.0,0.911,0.013
25/07/2023,08:45:20,0.653,2.0,0.923,0.012
25/07/2023,08:46:20,0.662,2.0,0.934,0.011
25/07/2023,08:47:20,0.749,2.0,0.946,0.012
25/07/2023,08:48:20,0.710,2.0,0.958,0.012
25/07/2023,08:49:20,0.861,2.0,0.972,0.014
25/07/2023,08:50:20,0.821,2.0,0.986,0.014
25/07/2023,08:51:20,0.758,2.0,0.999,0.013
25/07/2023,08:52:21,0.845,2.0,1.014,0.015
25/07/2023,08:53:20,0.808,2.0,1.028,0.014
25/07/2023,08:54:20,0.781,2.0,1.041,0.013
25/07/2023,08:55:20,0.806,2.0,1.054,0.013
25/07/2023,08:56:20,0.858,2.0,1.068,0.014
25/07/2023,08:57:20,0.862,2.0,1.083,0.015
25/07/2023,08:58:20,0.841,2.0,1.098,0.015
25/07/2023,08:59:20,0.770,2.0,1.112,0.014
25/07/2023,09:00:20,0.746,2.0,1.124,0.012
25/07/2023,09:01:20,0.875,2.0,1.138,0.014
25/07/2023,09:02:21,0.944,2.0,1.153,0.015
25/07/2023,09:03:20,1.012,2.0,1.17,0.017
25/07/2023,09:04:20,1.106,3.0,1.186,0.016
25/07/2023,09:05:20,1.018,2.0,1.205,0.019
25/07/2023,09:06:21,1.081,2.0,1.223,0.018
25/07/2023,09:07:20,1.137,3.0,1.241,0.018
25/07/2023,09:08:20,0.955,2.0,1.259,0.018
25/07/2023,09:09:21,0.885,2.0,1.274,0.015
25/07/2023,09:10:20,1.039,2.0,1.29,0.016
25/07/2023,09:11:20,1.034,2.0,1.307,0.017
25/07/2023,09:12:20,1.145,3.0,1.326,0.019
25/07/2023,09:13:21,1.172,3.0,1.345,0.019
25/07/2023,09:14:21,1.174,3.0,1.364,0.019
25/07/2023,09:15:20,1.005,2.0,1.383,0.019
25/07/2023,09:16:20,0.842,2.0,1.399,0.016
25/07/2023,09:17:26,0.868,2.0,1.415,0.016
25/07/2023,09:18:21,0.790,2.0,1.427,0.012
25/07/2023,09:19:21,1.042,2.0,1.443,0.016
25/07/2023,09:20:20,1.057,2.0,1.46,0.017
25/07/2023,09:21:21,1.004,2.0,1.479,0.019
25/07/2023,09:22:20,0.807,2.0,1.496,0.017
25/07/2023,09:23:21,0.837,2.0,1.51,0.014
25/07/2023,09:24:20,0.811,2.0,1.524,0.014
25/07/2023,09:25:21,0.841,2.0,1.538,0.014
25/07/2023,09:26:20,1.067,2.0,1.553,0.015
25/07/2023,09:27:20,1.018,2.0,1.571,0.018
25/07/2023,09:28:20,1.224,3.0,1.591,0.02
25/07/2023,09:29:20,1.149,3.0,1.611,0.02
25/07/2023,09:30:21,1.181,3.0,1.631,0.02
25/07/2023,09:31:20,1.035,2.0,1.648,0.017
25/07/2023,09:32:21,0.862,2.0,1.664,0.016
25/07/2023,09:33:20,0.721,2.0,1.678,0.014
25/07/2023,09:34:20,0.559,1.0,1.688,0.01
25/07/2023,09:35:20,0.497,1.0,1.697,0.009
25/07/2023,09:36:21,0.427,1.0,1.705,0.008
25/07/2023,09:37:21,0.362,1.0,1.711,0.006
25/07/2023,09:38:20,0.310,1.0,1.717,0.006
25/07/2023,09:39:20,0.272,1.0,1.722,0.005
25/07/2023,09:40:20,0.255,1.0,1.726,0.004
25/07/2023,09:41:21,0.255,1.0,1.73,0.004
25/07/2023,09:42:21,0.269,1.0,1.735,0.005
25/07/2023,09:43:20,0.284,1.0,1.739,0.004
25/07/2023,09:44:20,0.296,1.0,1.744,0.005
25/07/2023,09:45:21,0.299,1.0,1.749,0.005
25/07/2023,09:46:21,0.302,1.0,1.754,0.005
25/07/2023,09:47:20,0.306,1.0,1.759,0.005
25/07/2023,09:48:21,0.321,1.0,1.764,0.005
25/07/2023,09:49:20,0.342,1.0,1.77,0.006
25/07/2023,09:50:20,0.371,1.0,1.776,0.006
25/07/2023,09:51:20,0.404,1.0,1.782,0.006
25/07/2023,09:52:20,0.441,1.0,1.789,0.007
25/07/2023,09:53:21,0.480,1.0,1.797,0.008
25/07/2023,09:54:21,0.522,1.0,1.805,0.008
25/07/2023,09:55:21,0.563,1.0,1.814,0.009
25/07/2023,09:56:20,0.604,1.0,1.824,0.01